Spokane Felts, WA
on Monday, November 26, 2012

Monday
Previous Day Next Day
Daily Summary
 ActualAverageRecord
Temperature
Mean Temperature °F 34°F  
Max Temperature 39°F 39°F 57°F (1998)
Min Temperature 26°F 28°F 21°F (2003)
Degree Days
Heating Degree Days 32 31  
Month to date heating degree days 613 706  
Since 1 July heating degree days 1172 1443  
Cooling Degree Days 0 0  
Month to date cooling degree days 0 0  
Year to date cooling degree days 509 406  
Moisture
Dew Point 26°F   
Average Humidity 78    
Maximum Humidity 92    
Minimum Humidity 64    
Precipitation
Precipitation 0.00 in 0.08 in 0.27 in (2006)
Month to date precipitation 2.78 1.92  
Year to date precipitation 18.37 14.87  
Wind
Wind Speed 1 mph   
Max Wind Speed 6 mph   
Max Gust Speed 8 mph   
Visibility 5 miles   
Events Fog   

Key: T is trace of precipitation, MM is missing value
Source: NWS Daily Summary
Time(PST)TemperatureDew PointHumidity Pressure Visibility Wind DirectionWind SpeedGust SpeedPrecipitationEvents Conditions
12:02 AM 28.4°F 24.8°F 86% 30.33 in 1.8 miles Calm Calm - N/A   Mostly Cloudy
12:15 AM 26.6°F 23.0°F 86% 30.33 in 3.0 miles ENE 3.5 mph - N/A   Mostly Cloudy
12:25 AM 26.6°F 24.8°F 93% 30.33 in 6.0 miles Calm Calm - N/A   Scattered Clouds
12:37 AM 28.4°F 24.8°F 86% 30.33 in 6.0 miles Calm Calm - N/A   Mostly Cloudy
12:48 AM 28.4°F 24.8°F 86% 30.33 in 3.0 miles Calm Calm - N/A   Overcast
12:53 AM 28.0°F 25.0°F 88% 30.38 in 1.0 miles Calm Calm - N/A   Overcast
12:56 AM 28.4°F 24.8°F 86% 30.33 in 0.5 miles Calm Calm - N/A Fog Light Freezing Fog
1:06 AM 28.4°F 24.8°F 86% 30.33 in 1.0 miles Calm Calm - N/A   Overcast
1:14 AM 28.4°F 24.8°F 86% 30.33 in 3.0 miles Calm Calm - N/A   Overcast
1:18 AM 28.4°F 24.8°F 86% 30.33 in 1.5 miles Calm Calm - N/A   Overcast
1:23 AM 26.6°F 24.8°F 93% 30.33 in 0.5 miles Calm Calm - N/A Fog Light Freezing Fog
1:30 AM 26.6°F 24.8°F 93% 30.33 in 0.8 miles Calm Calm - N/A   Overcast
1:35 AM 26.6°F 24.8°F 93% 30.34 in 2.0 miles SE 3.5 mph - N/A   Overcast
1:53 AM 27.0°F 24.1°F 89% 30.39 in 1.2 miles Calm Calm - N/A   Overcast
2:04 AM 26.6°F 24.8°F 93% 30.33 in 0.5 miles Calm Calm - N/A Fog Light Freezing Fog
2:53 AM 27.0°F 25.0°F 92% 30.38 in 0.2 miles Calm Calm - N/A Fog Light Freezing Fog
3:53 AM 28.0°F 25.0°F 88% 30.36 in 0.2 miles Calm Calm - N/A Fog Light Freezing Fog
4:34 AM 28.4°F 24.8°F 86% 30.30 in 1.0 miles Calm Calm - N/A   Mist
4:50 AM 28.4°F 26.6°F 93% 30.30 in 3.0 miles Calm Calm - N/A   Overcast
4:51 AM 28.9°F 26.1°F 89% 30.36 in 3.0 miles Calm Calm - N/A   Overcast
5:53 AM 28.9°F 26.1°F 89% 30.36 in 3.0 miles Calm Calm - N/A   Overcast
6:53 AM 28.9°F 26.1°F 89% 30.35 in 3.0 miles Calm Calm - N/A   Overcast
7:23 AM 28.4°F 26.6°F 93% 30.29 in 2.0 miles North 3.5 mph - N/A   Overcast
7:53 AM 28.9°F 26.1°F 89% 30.35 in 5.0 miles Calm Calm - N/A   Overcast
8:53 AM 30.0°F 26.1°F 85% 30.35 in 10.0 miles Calm Calm - N/A   Overcast
9:25 AM 30.2°F 26.6°F 86% 30.29 in 10.0 miles Calm Calm - N/A   Scattered Clouds
9:53 AM 30.9°F 27.0°F 85% 30.34 in 10.0 miles Calm Calm - N/A   Scattered Clouds
10:53 AM 32.0°F 27.0°F 82% 30.30 in 10.0 miles Calm Calm - N/A   Scattered Clouds
11:53 AM 35.1°F 28.9°F 78% 30.28 in 10.0 miles WSW 3.5 mph - N/A   Partly Cloudy
12:53 PM 37.9°F 30.0°F 73% 30.26 in 10.0 miles Calm Calm - N/A   Clear
1:53 PM 39.0°F 28.0°F 65% 30.26 in 10.0 miles North 4.6 mph - N/A   Clear
2:53 PM 37.9°F 28.0°F 68% 30.24 in 10.0 miles North 3.5 mph - N/A   Clear
3:53 PM 36.0°F 28.0°F 73% 30.23 in 10.0 miles NNE 3.5 mph - N/A   Clear
4:53 PM 33.1°F 28.0°F 82% 30.24 in 10.0 miles Calm Calm - N/A   Clear
5:53 PM 32.0°F 27.0°F 82% 30.24 in 10.0 miles Calm Calm - N/A   Clear
6:53 PM 30.9°F 27.0°F 85% 30.25 in 10.0 miles Calm Calm - N/A   Clear
7:53 PM 28.9°F 26.1°F 89% 30.26 in 8.0 miles Calm Calm - N/A   Clear
8:25 PM 26.6°F 26.6°F 100% 30.20 in 1.5 miles Calm Calm - N/A   Clear
8:45 PM 30.2°F 26.6°F 86% 30.20 in 3.0 miles Calm Calm - N/A   Partly Cloudy
8:53 PM 28.9°F 26.1°F 89% 30.26 in 5.0 miles Calm Calm - N/A   Scattered Clouds
8:57 PM 28.4°F 26.6°F 93% 30.20 in 1.8 miles Calm Calm - N/A   Mostly Cloudy
9:08 PM 30.2°F 26.6°F 86% 30.21 in 3.0 miles Calm Calm - N/A   Mostly Cloudy
9:40 PM 30.2°F 28.4°F 93% 30.22 in 6.0 miles Calm Calm - N/A   Overcast
9:53 PM 30.9°F 28.0°F 89% 30.27 in 6.0 miles Calm Calm - N/A   Overcast
10:53 PM 30.9°F 28.0°F 89% 30.26 in 10.0 miles East 3.5 mph - N/A   Overcast
11:53 PM 32.0°F 27.0°F 82% 30.25 in 10.0 miles Calm Calm - N/A   Overcast
Moon Phase
Nov. 26 Nov. 28 Dec. 06 Dec. 13 Dec. 20
Sunrise:07:11 AM (PST) Moon Rise:03:00 PM (PST)11/26
Sunset:04:02 PM (PST) Moon Set:05:21 AM (PST)11/26

Copyright © 2014 The Weather Underground, Inc.